TimeAKDT,TemperatureF,Dew PointF,Humidity,Sea Level PressureIn,VisibilityMPH,Wind Direction,Wind SpeedMPH,Gust SpeedMPH,PrecipitationIn,Events,Conditions,WindDirDegrees,DateUTC
12:54 AM,41.0,37.0,86,30.52,10.0,East,4.6,-,N/A,,Overcast,90,2012-10-03 08:54:00
1:54 AM,44.1,37.9,79,30.52,10.0,East,3.5,-,0.00,,Overcast,80,2012-10-03 09:54:00
2:46 AM,42.8,39.2,87,30.51,10.0,Calm,Calm,-,0.00,Rain,Light Rain,0,2012-10-03 10:46:00
2:54 AM,42.1,39.0,89,30.52,10.0,Calm,Calm,-,0.00,,Overcast,0,2012-10-03 10:54:00
3:54 AM,39.0,37.0,93,30.51,10.0,Calm,Calm,-,N/A,,Overcast,0,2012-10-03 11:54:00
4:43 AM,42.8,39.2,87,30.50,10.0,Calm,Calm,-,0.00,,Overcast,0,2012-10-03 12:43:00
4:54 AM,42.1,39.0,89,30.51,10.0,Calm,Calm,-,0.00,,Overcast,0,2012-10-03 12:54:00
5:54 AM,39.9,37.9,93,30.51,10.0,Calm,Calm,-,N/A,,Overcast,0,2012-10-03 13:54:00
6:05 AM,39.2,37.4,93,30.50,10.0,WNW,4.6,-,N/A,,Overcast,300,2012-10-03 14:05:00
6:54 AM,39.0,37.0,93,30.51,10.0,WNW,4.6,-,N/A,,Overcast,300,2012-10-03 14:54:00
7:54 AM,39.0,37.0,93,30.50,10.0,Calm,Calm,-,N/A,,Overcast,0,2012-10-03 15:54:00
8:54 AM,39.9,37.9,93,30.51,10.0,Calm,Calm,-,N/A,,Overcast,0,2012-10-03 16:54:00
9:54 AM,39.9,37.9,93,30.51,10.0,WNW,6.9,-,0.00,,Overcast,290,2012-10-03 17:54:00
10:54 AM,42.1,37.9,85,30.51,10.0,WNW,4.6,-,N/A,,Overcast,290,2012-10-03 18:54:00
11:54 AM,43.0,37.9,82,30.52,10.0,WNW,8.1,-,N/A,,Overcast,290,2012-10-03 19:54:00
12:54 PM,45.0,37.9,76,30.52,10.0,West,3.5,-,N/A,,Overcast,270,2012-10-03 20:54:00
1:54 PM,46.9,37.9,71,30.51,10.0,SSE,3.5,-,N/A,,Overcast,150,2012-10-03 21:54:00
2:54 PM,45.0,37.9,76,30.51,10.0,Calm,Calm,-,N/A,,Overcast,0,2012-10-03 22:54:00
3:54 PM,46.0,37.9,73,30.51,10.0,Calm,Calm,-,N/A,,Overcast,0,2012-10-03 23:54:00
4:54 PM,46.0,39.0,76,30.50,10.0,Calm,Calm,-,N/A,,Overcast,0,2012-10-04 00:54:00
5:54 PM,45.0,37.9,76,30.51,10.0,Calm,Calm,-,N/A,,Overcast,0,2012-10-04 01:54:00
6:54 PM,43.0,39.0,86,30.51,10.0,Calm,Calm,-,N/A,,Overcast,0,2012-10-04 02:54:00
7:54 PM,41.0,37.9,89,30.51,10.0,Calm,Calm,-,N/A,,Overcast,0,2012-10-04 03:54:00
8:54 PM,42.1,39.0,89,30.51,10.0,Calm,Calm,-,N/A,,Overcast,0,2012-10-04 04:54:00
9:54 PM,42.1,39.0,89,30.52,10.0,Calm,Calm,-,N/A,,Overcast,0,2012-10-04 05:54:00
10:54 PM,42.1,39.0,89,30.51,10.0,Calm,Calm,-,N/A,,Overcast,0,2012-10-04 06:54:00
11:54 PM,41.0,39.9,96,30.51,10.0,Calm,Calm,-,N/A,,Overcast,0,2012-10-04 07:54:00